Time,TemperatureF,DewpointF,PressureIn,WindDirection,WindDirectionDegrees,WindSpeedMPH,WindSpeedGustMPH,Humidity,HourlyPrecipIn,Conditions,Clouds,dailyrainin,SoftwareType,DateUTC
2013-05-07 00:01:00,59.1,58.2,29.88,NNE,23,1.0,3.0,97,0.00,,,0.00,Wunderground v.1.15,2013-05-07 04:01:00,
2013-05-07 00:02:00,59.1,58.2,29.88,NNE,23,1.0,3.0,97,0.00,,,0.00,Wunderground v.1.15,2013-05-07 04:02:00,
2013-05-07 00:03:00,59.0,58.2,29.88,NNE,23,1.0,3.0,97,0.00,,,0.00,Wunderground v.1.15,2013-05-07 04:03:00,
2013-05-07 00:08:00,58.9,58.1,29.88,NNE,23,1.0,3.0,97,0.00,,,0.00,Wunderground v.1.15,2013-05-07 04:08:00,
2013-05-07 00:12:00,58.8,58.0,29.88,NNE,23,2.0,2.0,97,0.00,,,0.00,Wunderground v.1.15,2013-05-07 04:12:00,
2013-05-07 00:17:00,58.9,58.1,29.88,NNE,26,2.0,3.0,97,0.00,,,0.00,Wunderground v.1.15,2013-05-07 04:17:00,
2013-05-07 00:22:00,58.7,57.9,29.88,NE,53,2.0,4.0,97,0.00,,,0.00,Wunderground v.1.15,2013-05-07 04:22:00,
2013-05-07 00:28:00,58.4,57.3,29.88,North,11,2.0,4.0,96,0.00,,,0.00,Wunderground v.1.15,2013-05-07 04:28:00,
2013-05-07 00:34:00,58.2,57.4,29.88,North,11,1.0,4.0,97,0.00,,,0.00,Wunderground v.1.15,2013-05-07 04:34:00,
2013-05-07 00:39:00,58.4,57.6,29.88,NE,43,1.0,4.0,97,0.00,,,0.00,Wunderground v.1.15,2013-05-07 04:39:00,
2013-05-07 00:45:00,58.4,57.6,29.88,NE,43,1.0,4.0,97,0.00,,,0.00,Wunderground v.1.15,2013-05-07 04:45:00,
2013-05-07 00:50:00,58.3,57.5,29.89,NE,43,1.0,1.0,97,0.00,,,0.00,Wunderground v.1.15,2013-05-07 04:50:00,
2013-05-07 00:56:00,58.1,57.3,29.88,NE,43,1.0,4.0,97,0.00,,,0.00,Wunderground v.1.15,2013-05-07 04:56:00,
2013-05-07 01:02:00,57.8,56.7,29.88,NE,43,1.0,3.0,96,0.00,,,0.00,Wunderground v.1.15,2013-05-07 05:02:00,
2013-05-07 01:07:00,57.6,56.5,29.88,NNE,30,2.0,3.0,96,0.00,,,0.00,Wunderground v.1.15,2013-05-07 05:07:00,
2013-05-07 01:13:00,57.4,56.3,29.88,NNE,18,2.0,2.0,96,0.00,,,0.00,Wunderground v.1.15,2013-05-07 05:13:00,
2013-05-07 01:18:00,57.1,55.7,29.87,NNE,29,1.0,4.0,95,0.00,,,0.00,Wunderground v.1.15,2013-05-07 05:18:00,
2013-05-07 01:24:00,56.9,55.5,29.87,NE,35,1.0,2.0,95,0.00,,,0.00,Wunderground v.1.15,2013-05-07 05:24:00,
2013-05-07 01:29:00,56.8,55.1,29.87,NE,35,1.0,2.0,94,0.00,,,0.00,Wunderground v.1.15,2013-05-07 05:29:00,
2013-05-07 01:35:00,56.5,54.8,29.88,NE,35,1.0,3.0,94,0.00,,,0.00,Wunderground v.1.15,2013-05-07 05:35:00,
2013-05-07 01:41:00,56.1,54.4,29.88,NE,35,1.0,1.0,94,0.00,,,0.00,Wunderground v.1.15,2013-05-07 05:41:00,
2013-05-07 01:46:00,55.8,54.4,29.87,NE,35,0.0,1.0,95,0.00,,,0.00,Wunderground v.1.15,2013-05-07 05:46:00,
2013-05-07 01:52:00,55.8,54.4,29.87,NE,35,0.0,0.0,95,0.00,,,0.00,Wunderground v.1.15,2013-05-07 05:52:00,
2013-05-07 01:57:00,55.8,54.7,29.87,NE,35,0.0,0.0,96,0.00,,,0.00,Wunderground v.1.15,2013-05-07 05:57:00,
2013-05-07 02:03:00,55.7,54.6,29.87,NE,35,0.0,0.0,96,0.00,,,0.00,Wunderground v.1.15,2013-05-07 06:03:00,
2013-05-07 02:09:00,55.6,54.5,29.87,NE,35,0.0,0.0,96,0.00,,,0.00,Wunderground v.1.15,2013-05-07 06:09:00,
2013-05-07 02:14:00,55.4,54.3,29.87,NE,35,0.0,0.0,96,0.00,,,0.00,Wunderground v.1.15,2013-05-07 06:14:00,
2013-05-07 02:20:00,55.3,54.2,29.87,NE,35,0.0,0.0,96,0.00,,,0.00,Wunderground v.1.15,2013-05-07 06:20:00,
2013-05-07 02:25:00,55.2,54.1,29.87,NE,35,0.0,0.0,96,0.00,,,0.00,Wunderground v.1.15,2013-05-07 06:25:00,
2013-05-07 02:31:00,55.2,54.1,29.87,NE,35,0.0,1.0,96,0.00,,,0.00,Wunderground v.1.15,2013-05-07 06:31:00,
2013-05-07 02:36:00,55.1,54.0,29.86,NE,35,0.0,1.0,96,0.00,,,0.00,Wunderground v.1.15,2013-05-07 06:36:00,
2013-05-07 02:42:00,55.0,53.9,29.86,NE,35,1.0,4.0,96,0.00,,,0.00,Wunderground v.1.15,2013-05-07 06:42:00,
2013-05-07 02:48:00,54.9,53.8,29.86,NE,46,1.0,4.0,96,0.00,,,0.00,Wunderground v.1.15,2013-05-07 06:48:00,
2013-05-07 02:53:00,54.8,53.7,29.85,NE,46,1.0,1.0,96,0.00,,,0.00,Wunderground v.1.15,2013-05-07 06:53:00,
2013-05-07 02:59:00,54.7,53.6,29.85,NE,46,1.0,2.0,96,0.00,,,0.00,Wunderground v.1.15,2013-05-07 06:59:00,
2013-05-07 03:04:00,54.6,53.5,29.85,NE,46,1.0,3.0,96,0.00,,,0.00,Wunderground v.1.15,2013-05-07 07:04:00,
2013-05-07 03:10:00,54.3,52.9,29.86,NE,46,1.0,1.0,95,0.00,,,0.00,Wunderground v.1.15,2013-05-07 07:10:00,
2013-05-07 03:16:00,54.1,53.0,29.85,NE,46,0.0,1.0,96,0.00,,,0.00,Wunderground v.1.15,2013-05-07 07:16:00,
2013-05-07 03:21:00,53.7,52.3,29.86,NE,46,0.0,1.0,95,0.00,,,0.00,Wunderground v.1.15,2013-05-07 07:21:00,
2013-05-07 03:27:00,53.6,52.5,29.85,NE,46,1.0,2.0,96,0.00,,,0.00,Wunderground v.1.15,2013-05-07 07:27:00,
2013-05-07 03:32:00,53.6,52.5,29.86,NE,46,0.0,3.0,96,0.00,,,0.00,Wunderground v.1.15,2013-05-07 07:32:00,
2013-05-07 03:38:00,53.5,52.4,29.86,NE,46,0.0,3.0,96,0.00,,,0.00,Wunderground v.1.15,2013-05-07 07:38:00,
2013-05-07 03:44:00,53.2,52.1,29.86,NE,46,0.0,3.0,96,0.00,,,0.00,Wunderground v.1.15,2013-05-07 07:44:00,
2013-05-07 03:50:00,53.1,52.0,29.86,NE,46,0.0,3.0,96,0.00,,,0.00,Wunderground v.1.15,2013-05-07 07:50:00,
2013-05-07 03:56:00,53.0,51.9,29.86,NE,46,0.0,3.0,96,0.00,,,0.00,Wunderground v.1.15,2013-05-07 07:56:00,
2013-05-07 04:02:00,52.7,51.6,29.86,NE,46,0.0,0.0,96,0.00,,,0.00,Wunderground v.1.15,2013-05-07 08:02:00,
2013-05-07 04:08:00,52.5,51.4,29.86,NE,46,0.0,0.0,96,0.00,,,0.00,Wunderground v.1.15,2013-05-07 08:08:00,
2013-05-07 04:14:00,52.1,51.0,29.86,NE,46,0.0,0.0,96,0.00,,,0.00,Wunderground v.1.15,2013-05-07 08:14:00,
2013-05-07 04:19:00,51.9,50.8,29.86,NE,46,0.0,0.0,96,0.00,,,0.00,Wunderground v.1.15,2013-05-07 08:19:00,
2013-05-07 04:25:00,51.9,50.8,29.85,NE,46,0.0,0.0,96,0.00,,,0.00,Wunderground v.1.15,2013-05-07 08:25:00,
2013-05-07 04:30:00,51.9,51.1,29.86,NE,46,0.0,0.0,97,0.00,,,0.00,Wunderground v.1.15,2013-05-07 08:30:00,
2013-05-07 04:36:00,51.8,50.7,29.86,NE,46,0.0,4.0,96,0.00,,,0.00,Wunderground v.1.15,2013-05-07 08:36:00,
2013-05-07 04:42:00,51.8,51.0,29.86,NE,46,0.0,4.0,97,0.00,,,0.00,Wunderground v.1.15,2013-05-07 08:42:00,
2013-05-07 04:47:00,51.5,50.4,29.86,NE,46,0.0,4.0,96,0.00,,,0.00,Wunderground v.1.15,2013-05-07 08:47:00,
2013-05-07 04:53:00,51.3,50.2,29.85,NE,46,0.0,4.0,96,0.00,,,0.00,Wunderground v.1.15,2013-05-07 08:53:00,
2013-05-07 04:58:00,51.1,50.0,29.86,NE,46,0.0,4.0,96,0.00,,,0.00,Wunderground v.1.15,2013-05-07 08:58:00,
2013-05-07 05:04:00,51.0,50.2,29.85,NE,46,0.0,0.0,97,0.00,,,0.00,Wunderground v.1.15,2013-05-07 09:04:00,
2013-05-07 05:10:00,51.2,50.4,29.86,NE,46,0.0,0.0,97,0.00,,,0.00,Wunderground v.1.15,2013-05-07 09:10:00,
2013-05-07 05:15:00,51.2,50.4,29.86,NE,46,0.0,0.0,97,0.00,,,0.00,Wunderground v.1.15,2013-05-07 09:15:00,
2013-05-07 05:21:00,51.1,50.3,29.86,NE,46,0.0,0.0,97,0.00,,,0.00,Wunderground v.1.15,2013-05-07 09:21:00,
2013-05-07 05:26:00,51.1,50.3,29.86,NE,46,0.0,0.0,97,0.00,,,0.00,Wunderground v.1.15,2013-05-07 09:26:00,
2013-05-07 05:32:00,51.1,50.3,29.86,NE,46,0.0,0.0,97,0.00,,,0.00,Wunderground v.1.15,2013-05-07 09:32:00,
2013-05-07 05:37:00,51.3,50.5,29.86,NE,46,0.0,0.0,97,0.00,,,0.00,Wunderground v.1.15,2013-05-07 09:37:00,
2013-05-07 05:43:00,51.4,50.6,29.86,NE,46,0.0,0.0,97,0.00,,,0.00,Wunderground v.1.15,2013-05-07 09:43:00,
2013-05-07 05:49:00,51.5,50.7,29.86,NE,46,0.0,1.0,97,0.00,,,0.00,Wunderground v.1.15,2013-05-07 09:49:00,
2013-05-07 05:54:00,51.6,50.8,29.86,NE,46,0.0,0.0,97,0.00,,,0.01,Wunderground v.1.15,2013-05-07 09:54:00,
2013-05-07 06:00:00,51.5,50.7,29.86,NE,46,0.0,0.0,97,0.00,,,0.01,Wunderground v.1.15,2013-05-07 10:00:00,
2013-05-07 06:06:00,51.3,50.5,29.86,NE,46,0.0,0.0,97,0.00,,,0.01,Wunderground v.1.15,2013-05-07 10:06:00,
2013-05-07 06:11:00,51.3,50.5,29.86,NE,46,0.0,0.0,97,0.00,,,0.01,Wunderground v.1.15,2013-05-07 10:11:00,
2013-05-07 06:16:00,51.7,50.9,29.87,NE,46,0.0,1.0,97,0.00,,,0.01,Wunderground v.1.15,2013-05-07 10:16:00,
2013-05-07 06:26:00,51.6,50.8,29.87,NE,46,0.0,0.0,97,0.00,,,0.01,Wunderground v.1.15,2013-05-07 10:26:00,
2013-05-07 06:31:00,51.5,50.7,29.87,NE,46,0.0,1.0,97,0.00,,,0.01,Wunderground v.1.15,2013-05-07 10:31:00,
2013-05-07 06:36:00,51.6,50.8,29.87,ENE,78,0.0,1.0,97,0.00,,,0.01,Wunderground v.1.15,2013-05-07 10:36:00,
2013-05-07 06:42:00,51.8,51.0,29.86,ENE,78,0.0,1.0,97,0.00,,,0.01,Wunderground v.1.15,2013-05-07 10:42:00,
2013-05-07 06:47:00,51.7,50.9,29.87,ENE,78,0.0,0.0,97,0.00,,,0.01,Wunderground v.1.15,2013-05-07 10:47:00,
2013-05-07 06:53:00,51.8,51.0,29.87,ENE,78,0.0,0.0,97,0.00,,,0.01,Wunderground v.1.15,2013-05-07 10:53:00,
2013-05-07 06:59:00,51.8,51.0,29.87,ENE,78,0.0,2.0,97,0.00,,,0.01,Wunderground v.1.15,2013-05-07 10:59:00,
2013-05-07 07:04:00,51.9,51.1,29.87,ENE,78,0.0,0.0,97,0.00,,,0.01,Wunderground v.1.15,2013-05-07 11:04:00,
2013-05-07 07:10:00,52.0,51.2,29.87,ENE,78,0.0,0.0,97,0.00,,,0.01,Wunderground v.1.15,2013-05-07 11:10:00,
2013-05-07 07:16:00,52.3,51.8,29.88,SSW,200,1.0,3.0,98,0.00,,,0.01,Wunderground v.1.15,2013-05-07 11:16:00,
2013-05-07 07:21:00,52.6,52.1,29.88,SSW,200,2.0,3.0,98,0.00,,,0.01,Wunderground v.1.15,2013-05-07 11:21:00,
2013-05-07 07:27:00,53.1,52.6,29.88,SSW,200,2.0,3.0,98,0.00,,,0.01,Wunderground v.1.15,2013-05-07 11:27:00,
2013-05-07 07:32:00,53.4,52.8,29.88,SSW,200,0.0,2.0,98,0.00,,,0.01,Wunderground v.1.15,2013-05-07 11:32:00,
2013-05-07 07:38:00,53.6,53.0,29.88,SSW,200,0.0,2.0,98,0.00,,,0.01,Wunderground v.1.15,2013-05-07 11:38:00,
2013-05-07 07:44:00,54.0,53.4,29.87,SSW,192,1.0,2.0,98,0.00,,,0.01,Wunderground v.1.15,2013-05-07 11:44:00,
2013-05-07 07:49:00,54.2,53.6,29.87,South,186,1.0,2.0,98,0.00,,,0.01,Wunderground v.1.15,2013-05-07 11:49:00,
2013-05-07 07:55:00,54.4,53.8,29.87,South,186,0.0,2.0,98,0.00,,,0.01,Wunderground v.1.15,2013-05-07 11:55:00,
2013-05-07 08:00:00,54.9,54.3,29.87,South,186,0.0,1.0,98,0.00,,,0.01,Wunderground v.1.15,2013-05-07 12:00:00,
2013-05-07 08:06:00,55.6,55.0,29.87,South,186,0.0,2.0,98,0.00,,,0.01,Wunderground v.1.15,2013-05-07 12:06:00,
2013-05-07 08:12:00,56.1,55.5,29.87,South,186,2.0,4.0,98,0.00,,,0.01,Wunderground v.1.15,2013-05-07 12:12:00,
2013-05-07 08:17:00,56.1,55.5,29.87,SSW,207,3.0,5.0,98,0.00,,,0.01,Wunderground v.1.15,2013-05-07 12:17:00,
2013-05-07 08:23:00,56.0,55.4,29.88,SW,232,4.0,4.0,98,0.00,,,0.01,Wunderground v.1.15,2013-05-07 12:23:00,
2013-05-07 08:29:00,56.0,55.4,29.88,WSW,250,4.0,5.0,98,0.00,,,0.01,Wunderground v.1.15,2013-05-07 12:29:00,
2013-05-07 08:34:00,55.9,55.3,29.89,SW,235,4.0,5.0,98,0.00,,,0.01,Wunderground v.1.15,2013-05-07 12:34:00,
2013-05-07 08:40:00,56.1,55.5,29.89,SW,232,3.0,3.0,98,0.00,,,0.01,Wunderground v.1.15,2013-05-07 12:40:00,
2013-05-07 08:45:00,56.2,55.6,29.89,SW,232,3.0,5.0,98,0.00,,,0.01,Wunderground v.1.15,2013-05-07 12:45:00,
2013-05-07 08:51:00,56.1,55.3,29.89,SW,233,3.0,5.0,97,0.00,,,0.01,Wunderground v.1.15,2013-05-07 12:51:00,
2013-05-07 08:57:00,56.0,55.4,29.90,SW,229,4.0,5.0,98,0.00,,,0.01,Wunderground v.1.15,2013-05-07 12:57:00,
2013-05-07 09:02:00,56.0,55.4,29.90,SW,227,4.0,5.0,98,0.00,,,0.01,Wunderground v.1.15,2013-05-07 13:02:00,
2013-05-07 09:08:00,56.1,55.5,29.90,SW,227,4.0,5.0,98,0.00,,,0.01,Wunderground v.1.15,2013-05-07 13:08:00,
2013-05-07 09:14:00,56.2,55.6,29.90,SW,219,3.0,5.0,98,0.00,,,0.01,Wunderground v.1.15,2013-05-07 13:14:00,
2013-05-07 09:19:00,56.3,55.5,29.90,SW,219,2.0,5.0,97,0.00,,,0.01,Wunderground v.1.15,2013-05-07 13:19:00,
2013-05-07 09:25:00,56.4,55.8,29.90,SSW,211,2.0,4.0,98,0.00,,,0.01,Wunderground v.1.15,2013-05-07 13:25:00,
2013-05-07 09:30:00,56.4,55.6,29.91,SSW,211,2.0,2.0,97,0.00,,,0.01,Wunderground v.1.15,2013-05-07 13:30:00,
2013-05-07 09:36:00,56.5,55.9,29.91,SSW,211,3.0,7.0,98,0.00,,,0.01,Wunderground v.1.15,2013-05-07 13:36:00,
2013-05-07 09:42:00,56.6,56.0,29.91,SSW,211,2.0,7.0,98,0.00,,,0.01,Wunderground v.1.15,2013-05-07 13:42:00,
2013-05-07 09:47:00,56.8,56.2,29.91,SW,217,3.0,7.0,98,0.00,,,0.01,Wunderground v.1.15,2013-05-07 13:47:00,
2013-05-07 09:53:00,57.1,56.5,29.91,SW,223,3.0,7.0,98,0.00,,,0.01,Wunderground v.1.15,2013-05-07 13:53:00,
2013-05-07 09:59:00,56.9,56.1,29.91,SW,227,4.0,7.0,97,0.00,,,0.01,Wunderground v.1.15,2013-05-07 13:59:00,
2013-05-07 10:04:00,56.9,56.1,29.91,SW,224,4.0,4.0,97,0.00,,,0.01,Wunderground v.1.15,2013-05-07 14:04:00,
2013-05-07 10:10:00,57.2,56.4,29.91,NNW,334,3.0,3.0,97,0.00,,,0.01,Wunderground v.1.15,2013-05-07 14:10:00,
2013-05-07 10:16:00,57.5,56.7,29.91,SW,224,2.0,4.0,97,0.00,,,0.01,Wunderground v.1.15,2013-05-07 14:16:00,
2013-05-07 10:21:00,57.7,56.9,29.92,SSW,205,2.0,4.0,97,0.00,,,0.01,Wunderground v.1.15,2013-05-07 14:21:00,
2013-05-07 10:27:00,58.3,57.5,29.92,SW,228,2.0,4.0,97,0.00,,,0.01,Wunderground v.1.15,2013-05-07 14:27:00,
2013-05-07 10:33:00,58.2,56.8,29.92,SW,215,3.0,6.0,95,0.00,,,0.01,Wunderground v.1.15,2013-05-07 14:33:00,
2013-05-07 10:38:00,58.3,56.9,29.92,SW,215,2.0,6.0,95,0.00,,,0.01,Wunderground v.1.15,2013-05-07 14:38:00,
2013-05-07 10:44:00,58.6,57.2,29.92,SSW,213,2.0,6.0,95,0.00,,,0.01,Wunderground v.1.15,2013-05-07 14:44:00,
2013-05-07 10:49:00,58.8,57.1,29.92,SSW,213,2.0,6.0,94,0.00,,,0.01,Wunderground v.1.15,2013-05-07 14:49:00,
2013-05-07 10:55:00,59.3,57.6,29.92,SSW,213,1.0,6.0,94,0.00,,,0.01,Wunderground v.1.15,2013-05-07 14:55:00,
2013-05-07 11:00:00,59.9,57.6,29.92,SSW,213,1.0,1.0,92,0.00,,,0.01,Wunderground v.1.15,2013-05-07 15:00:00,
2013-05-07 11:05:00,60.8,58.5,29.92,SSW,209,1.0,4.0,92,0.00,,,0.01,Wunderground v.1.15,2013-05-07 15:05:00,
2013-05-07 11:11:00,61.2,58.2,29.92,SSW,209,1.0,2.0,90,0.00,,,0.01,Wunderground v.1.15,2013-05-07 15:11:00,
2013-05-07 11:16:00,61.4,58.1,29.92,WSW,250,2.0,4.0,89,0.00,,,0.01,Wunderground v.1.15,2013-05-07 15:16:00,
2013-05-07 11:22:00,61.9,58.3,29.92,WSW,246,4.0,7.0,88,0.00,,,0.01,Wunderground v.1.15,2013-05-07 15:22:00,
2013-05-07 11:28:00,62.6,59.0,29.91,South,175,4.0,7.0,88,0.00,,,0.01,Wunderground v.1.15,2013-05-07 15:28:00,
2013-05-07 11:33:00,63.1,58.8,29.91,South,173,4.0,8.0,86,0.00,,,0.01,Wunderground v.1.15,2013-05-07 15:33:00,
2013-05-07 11:39:00,63.3,58.4,29.92,SW,215,5.0,8.0,84,0.00,,,0.01,Wunderground v.1.15,2013-05-07 15:39:00,
2013-05-07 11:45:00,63.1,58.2,29.91,WSW,240,4.0,6.0,84,0.00,,,0.01,Wunderground v.1.15,2013-05-07 15:45:00,
2013-05-07 11:50:00,63.9,58.0,29.91,SSW,198,5.0,7.0,81,0.00,,,0.01,Wunderground v.1.15,2013-05-07 15:50:00,
2013-05-07 11:56:00,64.4,58.1,29.91,SW,223,6.0,7.0,80,0.00,,,0.01,Wunderground v.1.15,2013-05-07 15:56:00,
2013-05-07 12:02:00,64.6,57.9,29.91,SSW,207,5.0,6.0,79,0.00,,,0.01,Wunderground v.1.15,2013-05-07 16:02:00,
2013-05-07 12:07:00,64.9,59.3,29.91,SSW,213,5.0,8.0,82,0.00,,,0.01,Wunderground v.1.15,2013-05-07 16:07:00,
2013-05-07 12:13:00,65.5,59.2,29.91,SW,216,5.0,8.0,80,0.00,,,0.01,Wunderground v.1.15,2013-05-07 16:13:00,
2013-05-07 12:19:00,64.8,57.8,29.91,SSW,200,6.0,8.0,78,0.00,,,0.01,Wunderground v.1.15,2013-05-07 16:19:00,
2013-05-07 12:25:00,64.5,57.8,29.91,SSW,209,6.0,7.0,79,0.00,,,0.01,Wunderground v.1.15,2013-05-07 16:25:00,
2013-05-07 12:31:00,65.1,59.1,29.90,South,177,4.0,5.0,81,0.00,,,0.01,Wunderground v.1.15,2013-05-07 16:31:00,
2013-05-07 12:37:00,66.2,59.1,29.90,South,188,4.0,8.0,78,0.00,,,0.01,Wunderground v.1.15,2013-05-07 16:37:00,
2013-05-07 12:42:00,65.8,59.5,29.90,SW,221,5.0,5.0,80,0.00,,,0.01,Wunderground v.1.15,2013-05-07 16:42:00,
2013-05-07 12:48:00,65.9,57.7,29.90,SSW,202,5.0,9.0,75,0.00,,,0.01,Wunderground v.1.15,2013-05-07 16:48:00,
2013-05-07 12:54:00,65.9,58.5,29.90,SW,221,5.0,6.0,77,0.00,,,0.01,Wunderground v.1.15,2013-05-07 16:54:00,
2013-05-07 12:59:00,65.7,57.6,29.90,SSW,198,5.0,9.0,75,0.00,,,0.01,Wunderground v.1.15,2013-05-07 16:59:00,
2013-05-07 13:05:00,65.6,56.7,29.90,SSE,151,6.0,9.0,73,0.00,,,0.01,Wunderground v.1.15,2013-05-07 17:05:00,
2013-05-07 13:11:00,65.4,57.6,29.90,SSW,206,5.0,5.0,76,0.00,,,0.01,Wunderground v.1.15,2013-05-07 17:11:00,
2013-05-07 13:16:00,65.2,57.4,29.90,SSW,195,4.0,6.0,76,0.00,,,0.01,Wunderground v.1.15,2013-05-07 17:16:00,
2013-05-07 13:22:00,65.0,57.2,29.90,SSW,209,4.0,5.0,76,0.00,,,0.01,Wunderground v.1.15,2013-05-07 17:22:00,
2013-05-07 13:27:00,65.2,57.1,29.90,South,178,4.0,7.0,75,0.00,,,0.01,Wunderground v.1.15,2013-05-07 17:27:00,
2013-05-07 13:33:00,64.9,56.8,29.90,SW,215,5.0,10.0,75,0.00,,,0.01,Wunderground v.1.15,2013-05-07 17:33:00,
2013-05-07 13:39:00,65.4,57.6,29.90,South,182,3.0,10.0,76,0.00,,,0.01,Wunderground v.1.15,2013-05-07 17:39:00,
2013-05-07 13:45:00,65.8,54.9,29.89,SE,138,4.0,10.0,68,0.00,,,0.01,Wunderground v.1.15,2013-05-07 17:45:00,
2013-05-07 13:50:00,66.6,55.3,29.89,SSE,161,5.0,10.0,67,0.00,,,0.01,Wunderground v.1.15,2013-05-07 17:50:00,
2013-05-07 13:56:00,66.6,54.5,29.89,SW,229,4.0,10.0,65,0.00,,,0.01,Wunderground v.1.15,2013-05-07 17:56:00,
2013-05-07 14:02:00,66.8,52.5,29.89,SW,215,6.0,9.0,60,0.00,,,0.01,Wunderground v.1.15,2013-05-07 18:02:00,
2013-05-07 14:07:00,66.7,52.8,29.89,South,184,7.0,9.0,61,0.00,,,0.01,Wunderground v.1.15,2013-05-07 18:07:00,
2013-05-07 14:13:00,67.6,54.6,29.89,SW,219,7.0,9.0,63,0.00,,,0.01,Wunderground v.1.15,2013-05-07 18:13:00,
2013-05-07 14:19:00,67.7,49.9,29.89,SSW,198,6.0,9.0,53,0.00,,,0.01,Wunderground v.1.15,2013-05-07 18:19:00,
2013-05-07 14:24:00,68.2,52.9,29.88,SSW,211,7.0,12.0,58,0.00,,,0.01,Wunderground v.1.15,2013-05-07 18:24:00,
2013-05-07 14:30:00,68.3,53.4,29.88,SSW,193,7.0,7.0,59,0.00,,,0.01,Wunderground v.1.15,2013-05-07 18:30:00,
2013-05-07 14:35:00,68.6,55.1,29.88,SW,231,6.0,11.0,62,0.00,,,0.01,Wunderground v.1.15,2013-05-07 18:35:00,
2013-05-07 14:41:00,68.4,55.7,29.88,SW,232,6.0,11.0,64,0.00,,,0.01,Wunderground v.1.15,2013-05-07 18:41:00,
2013-05-07 14:47:00,68.8,53.9,29.88,South,181,6.0,11.0,59,0.00,,,0.01,Wunderground v.1.15,2013-05-07 18:47:00,
2013-05-07 14:52:00,68.8,54.3,29.88,SSW,207,6.0,11.0,60,0.00,,,0.01,Wunderground v.1.15,2013-05-07 18:52:00,
2013-05-07 14:58:00,69.2,56.1,29.88,SSW,194,7.0,11.0,63,0.00,,,0.01,Wunderground v.1.15,2013-05-07 18:58:00,
2013-05-07 15:04:00,68.7,53.8,29.88,SW,229,7.0,10.0,59,0.00,,,0.01,Wunderground v.1.15,2013-05-07 19:04:00,
2013-05-07 15:09:00,68.1,53.7,29.88,SSW,207,8.0,13.0,60,0.00,,,0.01,Wunderground v.1.15,2013-05-07 19:09:00,
2013-05-07 15:15:00,67.9,51.6,29.88,SW,215,8.0,10.0,56,0.00,,,0.01,Wunderground v.1.15,2013-05-07 19:15:00,
2013-05-07 15:20:00,68.1,53.7,29.88,SW,219,6.0,6.0,60,0.00,,,0.01,Wunderground v.1.15,2013-05-07 19:20:00,
2013-05-07 15:26:00,67.8,55.2,29.87,SSW,211,5.0,7.0,64,0.00,,,0.01,Wunderground v.1.15,2013-05-07 19:26:00,
2013-05-07 15:32:00,68.1,51.8,29.87,SSW,196,5.0,14.0,56,0.00,,,0.01,Wunderground v.1.15,2013-05-07 19:32:00,
2013-05-07 15:38:00,67.9,53.5,29.87,SSW,194,6.0,14.0,60,0.00,,,0.01,Wunderground v.1.15,2013-05-07 19:38:00,
2013-05-07 15:43:00,68.2,51.9,29.87,SW,219,7.0,14.0,56,0.00,,,0.01,Wunderground v.1.15,2013-05-07 19:43:00,
2013-05-07 15:49:00,68.6,50.3,29.87,SSW,211,7.0,14.0,52,0.00,,,0.01,Wunderground v.1.15,2013-05-07 19:49:00,
2013-05-07 15:54:00,68.9,51.6,29.87,SW,221,7.0,14.0,54,0.00,,,0.01,Wunderground v.1.15,2013-05-07 19:54:00,
2013-05-07 16:00:00,69.4,49.9,29.87,South,188,8.0,8.0,50,0.00,,,0.01,Wunderground v.1.15,2013-05-07 20:00:00,
2013-05-07 16:06:00,68.3,48.4,29.87,SW,224,9.0,12.0,49,0.00,,,0.01,Wunderground v.1.15,2013-05-07 20:06:00,
2013-05-07 16:11:00,67.6,49.3,29.87,South,171,9.0,9.0,52,0.00,,,0.01,Wunderground v.1.15,2013-05-07 20:11:00,
2013-05-07 16:17:00,67.0,49.3,29.87,South,175,7.0,9.0,53,0.00,,,0.01,Wunderground v.1.15,2013-05-07 20:17:00,
2013-05-07 16:23:00,67.1,49.9,29.87,South,180,6.0,7.0,54,0.00,,,0.01,Wunderground v.1.15,2013-05-07 20:23:00,
2013-05-07 16:28:00,66.8,50.1,29.87,SSW,206,6.0,8.0,55,0.00,,,0.01,Wunderground v.1.15,2013-05-07 20:28:00,
2013-05-07 16:34:00,66.7,50.0,29.87,SSW,200,5.0,14.0,55,0.00,,,0.01,Wunderground v.1.15,2013-05-07 20:34:00,
2013-05-07 16:40:00,66.1,51.4,29.87,SSW,205,4.0,14.0,59,0.00,,,0.01,Wunderground v.1.15,2013-05-07 20:40:00,
2013-05-07 16:45:00,65.7,51.0,29.87,SSW,205,3.0,14.0,59,0.00,,,0.01,Wunderground v.1.15,2013-05-07 20:45:00,
2013-05-07 16:51:00,65.4,49.3,29.87,SSW,205,1.0,14.0,56,0.00,,,0.01,Wunderground v.1.15,2013-05-07 20:51:00,
2013-05-07 16:57:00,65.3,50.6,29.87,SSW,205,1.0,14.0,59,0.00,,,0.01,Wunderground v.1.15,2013-05-07 20:57:00,
2013-05-07 17:02:00,65.5,51.7,29.87,SSW,205,0.0,0.0,61,0.00,,,0.01,Wunderground v.1.15,2013-05-07 21:02:00,
2013-05-07 17:08:00,66.1,51.8,29.87,SSW,205,0.0,0.0,60,0.00,,,0.01,Wunderground v.1.15,2013-05-07 21:08:00,
2013-05-07 17:14:00,66.9,52.6,29.87,SSW,205,0.0,0.0,60,0.00,,,0.01,Wunderground v.1.15,2013-05-07 21:14:00,
2013-05-07 17:19:00,67.2,49.5,29.87,SSE,160,0.0,3.0,53,0.00,,,0.01,Wunderground v.1.15,2013-05-07 21:19:00,
2013-05-07 17:25:00,67.4,51.6,29.87,SSE,160,0.0,1.0,57,0.00,,,0.01,Wunderground v.1.15,2013-05-07 21:25:00,
2013-05-07 17:30:00,67.5,50.3,29.87,SE,142,0.0,3.0,54,0.00,,,0.01,Wunderground v.1.15,2013-05-07 21:30:00,
2013-05-07 17:36:00,67.2,50.5,29.87,SE,142,1.0,15.0,55,0.00,,,0.01,Wunderground v.1.15,2013-05-07 21:36:00,
2013-05-07 17:42:00,67.1,50.4,29.87,SE,138,1.0,15.0,55,0.00,,,0.01,Wunderground v.1.15,2013-05-07 21:42:00,
2013-05-07 17:47:00,67.1,51.8,29.87,SE,138,1.0,15.0,58,0.00,,,0.01,Wunderground v.1.15,2013-05-07 21:47:00,
2013-05-07 17:53:00,67.2,52.8,29.87,SE,138,0.0,15.0,60,0.00,,,0.01,Wunderground v.1.15,2013-05-07 21:53:00,
2013-05-07 17:59:00,67.2,52.4,29.87,SE,138,0.0,15.0,59,0.00,,,0.01,Wunderground v.1.15,2013-05-07 21:59:00,
2013-05-07 18:04:00,67.1,52.3,29.87,SE,138,0.0,1.0,59,0.00,,,0.01,Wunderground v.1.15,2013-05-07 22:04:00,
2013-05-07 18:10:00,67.1,53.2,29.87,SE,138,0.0,0.0,61,0.00,,,0.01,Wunderground v.1.15,2013-05-07 22:10:00,
2013-05-07 18:16:00,67.1,52.7,29.87,SE,138,0.0,1.0,60,0.00,,,0.01,Wunderground v.1.15,2013-05-07 22:16:00,
2013-05-07 18:21:00,67.5,54.0,29.87,SSW,198,0.0,4.0,62,0.00,,,0.01,Wunderground v.1.15,2013-05-07 22:21:00,
2013-05-07 18:27:00,66.6,54.5,29.88,SSW,203,3.0,7.0,65,0.00,,,0.01,Wunderground v.1.15,2013-05-07 22:27:00,
2013-05-07 18:32:00,65.3,54.1,29.87,SW,228,5.0,8.0,67,0.00,,,0.01,Wunderground v.1.15,2013-05-07 22:32:00,
2013-05-07 18:38:00,64.3,53.9,29.88,SSW,192,7.0,11.0,69,0.00,,,0.01,Wunderground v.1.15,2013-05-07 22:38:00,
2013-05-07 18:43:00,63.8,54.2,29.88,SSW,198,7.0,8.0,71,0.00,,,0.01,Wunderground v.1.15,2013-05-07 22:43:00,
2013-05-07 18:49:00,63.3,53.7,29.88,SSW,208,6.0,8.0,71,0.00,,,0.01,Wunderground v.1.15,2013-05-07 22:49:00,
2013-05-07 18:55:00,62.9,53.7,29.88,SSW,196,5.0,7.0,72,0.00,,,0.01,Wunderground v.1.15,2013-05-07 22:55:00,
2013-05-07 19:00:00,62.6,53.8,29.88,SSW,206,5.0,5.0,73,0.00,,,0.01,Wunderground v.1.15,2013-05-07 23:00:00,
2013-05-07 19:06:00,62.5,54.1,29.89,SSW,211,5.0,6.0,74,0.00,,,0.01,Wunderground v.1.15,2013-05-07 23:06:00,
2013-05-07 19:12:00,62.7,53.9,29.89,SSE,168,4.0,5.0,73,0.00,,,0.01,Wunderground v.1.15,2013-05-07 23:12:00,
2013-05-07 19:17:00,62.5,53.7,29.89,South,190,4.0,6.0,73,0.00,,,0.01,Wunderground v.1.15,2013-05-07 23:17:00,
2013-05-07 19:23:00,62.0,52.1,29.89,SSE,158,5.0,8.0,70,0.00,,,0.01,Wunderground v.1.15,2013-05-07 23:23:00,
2013-05-07 19:28:00,61.3,52.6,29.89,SSW,192,6.0,8.0,73,0.00,,,0.01,Wunderground v.1.15,2013-05-07 23:28:00,
2013-05-07 19:34:00,60.7,52.4,29.89,SSW,193,4.0,13.0,74,0.00,,,0.01,Wunderground v.1.15,2013-05-07 23:34:00,
2013-05-07 19:40:00,60.4,52.8,29.89,SSW,198,3.0,3.0,76,0.00,,,0.01,Wunderground v.1.15,2013-05-07 23:40:00,
2013-05-07 19:45:00,60.0,52.4,29.89,SSW,207,3.0,13.0,76,0.00,,,0.01,Wunderground v.1.15,2013-05-07 23:45:00,
2013-05-07 19:51:00,59.6,52.7,29.90,SSW,207,3.0,13.0,78,0.00,,,0.01,Wunderground v.1.15,2013-05-07 23:51:00,
2013-05-07 19:57:00,59.3,53.1,29.90,WSW,240,3.0,13.0,80,0.00,,,0.01,Wunderground v.1.15,2013-05-07 23:57:00,
2013-05-07 20:02:00,59.2,53.4,29.91,WSW,241,5.0,5.0,81,0.00,,,0.01,Wunderground v.1.15,2013-05-08 00:02:00,
2013-05-07 20:08:00,59.3,53.5,29.91,WSW,238,6.0,8.0,81,0.00,,,0.01,Wunderground v.1.15,2013-05-08 00:08:00,
2013-05-07 20:13:00,59.1,53.3,29.91,WSW,240,5.0,6.0,81,0.00,,,0.01,Wunderground v.1.15,2013-05-08 00:13:00,
2013-05-07 20:19:00,59.0,53.2,29.91,WSW,244,4.0,6.0,81,0.00,,,0.01,Wunderground v.1.15,2013-05-08 00:19:00,
2013-05-07 20:25:00,58.8,53.0,29.92,WSW,244,2.0,4.0,81,0.00,,,0.01,Wunderground v.1.15,2013-05-08 00:25:00,
2013-05-07 20:30:00,58.6,53.1,29.92,West,280,1.0,3.0,82,0.00,,,0.01,Wunderground v.1.15,2013-05-08 00:30:00,
2013-05-07 20:36:00,58.3,53.2,29.92,WNW,282,1.0,11.0,83,0.00,,,0.01,Wunderground v.1.15,2013-05-08 00:36:00,
2013-05-07 20:41:00,58.0,52.5,29.92,NNW,335,1.0,11.0,82,0.00,,,0.01,Wunderground v.1.15,2013-05-08 00:41:00,
2013-05-07 20:47:00,57.9,52.4,29.92,NNW,335,1.0,11.0,82,0.00,,,0.01,Wunderground v.1.15,2013-05-08 00:47:00,
2013-05-07 20:53:00,57.6,52.5,29.92,NNW,335,0.0,11.0,83,0.00,,,0.01,Wunderground v.1.15,2013-05-08 00:53:00,
2013-05-07 20:58:00,57.5,52.7,29.92,NNW,335,1.0,11.0,84,0.00,,,0.01,Wunderground v.1.15,2013-05-08 00:58:00,
2013-05-07 21:04:00,57.4,52.9,29.92,NNW,335,0.0,0.0,85,0.00,,,0.01,Wunderground v.1.15,2013-05-08 01:04:00,
2013-05-07 21:10:00,57.2,53.0,29.93,NNW,335,0.0,1.0,86,0.00,,,0.01,Wunderground v.1.15,2013-05-08 01:10:00,
2013-05-07 21:15:00,56.9,52.8,29.93,NNW,334,1.0,1.0,86,0.00,,,0.01,Wunderground v.1.15,2013-05-08 01:15:00,
2013-05-07 21:21:00,56.8,52.7,29.93,NNW,334,0.0,1.0,86,0.00,,,0.01,Wunderground v.1.15,2013-05-08 01:21:00,
2013-05-07 21:26:00,56.6,52.5,29.93,NNW,334,0.0,1.0,86,0.00,,,0.01,Wunderground v.1.15,2013-05-08 01:26:00,
2013-05-07 21:32:00,56.5,52.4,29.93,NNW,334,0.0,0.0,86,0.00,,,0.01,Wunderground v.1.15,2013-05-08 01:32:00,
2013-05-07 21:38:00,56.4,52.6,29.93,NNW,334,0.0,0.0,87,0.00,,,0.01,Wunderground v.1.15,2013-05-08 01:38:00,
2013-05-07 21:44:00,56.0,52.2,29.94,NNW,334,0.0,0.0,87,0.00,,,0.01,Wunderground v.1.15,2013-05-08 01:44:00,
2013-05-07 21:50:00,55.7,52.2,29.94,NNW,334,0.0,0.0,88,0.00,,,0.01,Wunderground v.1.15,2013-05-08 01:50:00,
2013-05-07 21:56:00,55.5,52.3,29.93,NNW,334,0.0,0.0,89,0.00,,,0.01,Wunderground v.1.15,2013-05-08 01:56:00,
2013-05-07 22:01:00,55.3,52.1,29.93,NNW,334,0.0,0.0,89,0.00,,,0.01,Wunderground v.1.15,2013-05-08 02:01:00,
2013-05-07 22:07:00,55.1,52.2,29.93,NNW,334,0.0,0.0,90,0.00,,,0.01,Wunderground v.1.15,2013-05-08 02:07:00,
2013-05-07 22:12:00,55.0,52.1,29.93,NNW,334,0.0,0.0,90,0.00,,,0.01,Wunderground v.1.15,2013-05-08 02:12:00,
2013-05-07 22:18:00,54.7,51.8,29.93,WSW,244,0.0,2.0,90,0.00,,,0.01,Wunderground v.1.15,2013-05-08 02:18:00,
2013-05-07 22:23:00,54.6,51.7,29.93,WSW,244,0.0,0.0,90,0.00,,,0.01,Wunderground v.1.15,2013-05-08 02:23:00,
2013-05-07 22:29:00,54.6,52.0,29.94,WSW,244,0.0,0.0,91,0.00,,,0.01,Wunderground v.1.15,2013-05-08 02:29:00,
2013-05-07 22:35:00,54.6,52.0,29.94,WSW,244,0.0,3.0,91,0.00,,,0.01,Wunderground v.1.15,2013-05-08 02:35:00,
2013-05-07 22:40:00,54.5,51.9,29.94,WSW,244,0.0,3.0,91,0.00,,,0.01,Wunderground v.1.15,2013-05-08 02:40:00,
2013-05-07 22:46:00,54.4,51.8,29.94,WSW,244,0.0,3.0,91,0.00,,,0.01,Wunderground v.1.15,2013-05-08 02:46:00,
2013-05-07 22:51:00,54.3,52.0,29.94,WSW,244,0.0,3.0,92,0.00,,,0.01,Wunderground v.1.15,2013-05-08 02:51:00,
2013-05-07 22:57:00,54.1,51.8,29.94,WSW,244,0.0,3.0,92,0.00,,,0.01,Wunderground v.1.15,2013-05-08 02:57:00,
2013-05-07 23:03:00,53.9,51.6,29.94,WSW,244,0.0,0.0,92,0.00,,,0.01,Wunderground v.1.15,2013-05-08 03:03:00,
2013-05-07 23:08:00,53.7,51.4,29.94,WSW,244,0.0,0.0,92,0.00,,,0.01,Wunderground v.1.15,2013-05-08 03:08:00,
2013-05-07 23:14:00,53.3,51.0,29.94,WSW,244,0.0,0.0,92,0.00,,,0.01,Wunderground v.1.15,2013-05-08 03:14:00,
2013-05-07 23:19:00,53.2,51.2,29.94,WSW,244,1.0,3.0,93,0.00,,,0.01,Wunderground v.1.15,2013-05-08 03:19:00,
2013-05-07 23:25:00,53.1,51.4,29.94,WSW,244,1.0,1.0,94,0.00,,,0.01,Wunderground v.1.15,2013-05-08 03:25:00,
2013-05-07 23:30:00,53.1,51.4,29.94,WSW,244,0.0,0.0,94,0.00,,,0.01,Wunderground v.1.15,2013-05-08 03:30:00,
2013-05-07 23:36:00,53.1,51.4,29.94,WSW,244,0.0,7.0,94,0.00,,,0.01,Wunderground v.1.15,2013-05-08 03:36:00,
2013-05-07 23:42:00,53.0,51.3,29.95,WSW,244,0.0,7.0,94,0.00,,,0.01,Wunderground v.1.15,2013-05-08 03:42:00,
2013-05-07 23:47:00,53.0,51.3,29.95,WSW,244,0.0,7.0,94,0.00,,,0.01,Wunderground v.1.15,2013-05-08 03:47:00,
2013-05-07 23:53:00,53.0,51.3,29.95,WSW,244,0.0,7.0,94,0.00,,,0.01,Wunderground v.1.15,2013-05-08 03:53:00,
2013-05-07 23:58:00,53.1,51.7,29.95,WSW,244,0.0,7.0,95,0.00,,,0.01,Wunderground v.1.15,2013-05-08 03:58:00,